442  
ASUS43 KIND 230509  
RWRIN  
 
WEATHER ROUNDUP FOR INDIANA  
NATIONAL WEATHER SERVICE INDIANAPOLIS IN  
100 AM EDT TUE OCT 23 2018  
 
NOTE: "FAIR" INDICATES FEW OR NO CLOUDS BELOW 12,000 FEET WITH NO  
SIGNIFICANT WEATHER AND/OR S TO VISIBILITY
.  
 
* - STATION DOES NOT REPORT WEATHER SUCH AS PRECIPITATION OR FOG.
 
 
+ - STATION NOT QUALITY CONTROLLED BY THE NATIONAL WEATHER SERVICE.  
USE DATA WITH CAUTION...ESPECIALLY DEWPOINT AND RELATIVE  
HUMIDITY OBSERVATIONS.  
 
INZ001>003-010>013-019-020-230600-  
NORTHWEST INDIANA  
 
CITY SKY/WX TMP DP RH WIND PRES REMARKS
 
GARY /AIRPORT/ FAIR 52 33 47 W7 30.08S  
KNOX *+ FAIR 48 34 57 W13 30.06S  
LA PORTE + FAIR 52 35 51 W10G17 30.06R  
MICHIGAN CITY+ FAIR 52 36 54 W7 30.06S  
MONTICELLO + FAIR 47 37 66 SW8 30.09S  
RENSSELAER + FAIR 45 36 70 SW7 30.10S  
VALPARAISO FAIR 51 33 50 W12 30.07S  
 

 
 
LMZ046-743>745-230600-  
SOUTHERN LAKE MICHIGAN  
 
STATION/POSITION TIME TEMP WIND PRES WAVE
 
AIR SEA DIR/SP/G HT  
(UTC) (F) (DEG/KT/KT) (MB) (FT)  
BURNS HARBOR 0440 56 260/ 9/ 11 1018.3R  
MICHIGAN CITY 0440 57 250/ 25/ 28 N/A  
5NW MICH CITY 0500 57 56 300/ 16/ 21 N/A 4  
 

 
 
INZ004-005-014>016-021>024-230600-  
NORTH CENTRAL INDIANA  
 
CITY SKY/WX TMP DP RH WIND PRES REMARKS
 
GOSHEN FAIR 42 37 82 SW9 30.03F  
LOGANSPORT + FAIR 41 36 81 SW8 30.09F  
PERU/GRISSOM FAIR 43 41 94 SW10 30.07F  
ROCHESTER + FAIR 48 36 61 W7 30.07S  
SOUTH BEND FAIR 44 35 70 W9 30.05R  
WARSAW + FAIR 45 36 70 SW6 30.05F  
 

 
 
INZ006>009-017-018-025>027-230600-  
NORTHEAST INDIANA  
 
CITY SKY/WX TMP DP RH WIND PRES REMARKS
 
ANGOLA *+ FAIR 43 37 81 SW3 30.02S  
AUBURN + FAIR 45 37 76 SW6 30.04F  
FORT WAYNE FAIR 45 40 82 SW10 30.06F  
HUNTINGTON + FAIR 45 39 79 SW5 30.06F  
KENDALLVILLE + FAIR 46 35 65 SW8 30.03F  
 

 
 
INZ028-029-035-036-043>045-051>053-230600-  
WEST CENTRAL INDIANA  
 
CITY SKY/WX TMP DP RH WIND PRES REMARKS
 
CRAWFORDSVL + FAIR 42 42 100 SW5 30.13S  
GREENCASTLE + FAIR 46 39 76 CALM 30.14S  
LAFAYETTE FAIR 42 40 92 W3 30.11S  
TERRE HAUTE FAIR 50 41 71 SW6 30.15S  
 

 
 
INZ030>032-037>040-046>048-054>057-064-065-230600-  
CENTRAL INDIANA  
 
CITY SKY/WX TMP DP RH WIND PRES REMARKS
 
ANDERSON + FAIR 49 42 76 SW6 30.11F  
FISHERS *+ N/A 46 45 93 SW3 30.12S  
FRANKFORT + FAIR 43 38 84 SW3 30.12S  
GREENWOOD *+ FAIR 50 38 63 W7 30.14S  
INDIANAPOLIS FAIR 49 40 71 SW12 30.13S  
-EAGLE CREEK FAIR 51 41 68 SW6 30.11F  
KOKOMO + FAIR 45 40 82 SW9 30.09F  
MARION + FAIR 45 43 92 CALM 30.10S  
MT COMFORT *+ FAIR 50 43 76 SW8 30.12S  
SHELBYVILLE FAIR 49 37 63 SW8 30.12F  
ZIONSVILLE + FAIR 45 42 90 SW5 30.12S  
 

 
 
INZ033-034-041-042-049-050-058-059-230600-  
EAST CENTRAL INDIANA  
 
CITY SKY/WX TMP DP RH WIND PRES REMARKS
 
MUNCIE FAIR 51 41 68 SW8 30.10R  
RICHMOND + FAIR 46 37 71 W13 30.12S  
 

 
 
INZ060-061-067>069-081>083-085>088-230600-  
SOUTHWEST INDIANA  
 
CITY SKY/WX TMP DP RH WIND PRES REMARKS
 
EVANSVILLE FAIR 48 40 73 SW3 30.21R  
HUNTINGBURG + FAIR 46 37 71 S6 30.20S  
WASHINGTON + FAIR 50 34 53 W3 30.18S  
 

 
 
INZ062-063-066-070>080-084-089>092-230600-  
SOUTH CENTRAL AND SOUTHEAST INDIANA  
 
CITY SKY/WX TMP DP RH WIND PRES REMARKS
 
BEDFORD + FAIR 50 34 53 SW6 30.17S  
BLOOMINGTON FAIR 51 38 60 SW9G21 30.16S  
FRENCH LICK *+ FAIR 46 30 53 SW5 30.18F  
MADISON *+ FAIR 45 34 65 CALM 30.19S  
NORTH VERNON + FAIR 45 36 70 SW7 30.16S  
SEYMOUR + FAIR 54 N/A N/A W10 30.16S  
 

 
 
 
 
CLICK HERE TO GO TO PREVIOUS BULLETINS.

The Nexlab IN Page Main Text Page